Starlink 30500

operational
NORAD ID: 58076 Int'l Des: 2023-160 Owner: SPXS Country: US Constellation: starlink
LEOCIRCULAR

关于 Starlink 30500

正在加载描述...

实时位置

正在加载3D地球...

即将过境

高度历史

Altitude vs Time

uPlot chart will show altitude changes over time

两行轨道根数

1 58076U 23160B 25259.85513355 -.00000086 00000-0 87174-5 0 9993
2 58076 43.0083 304.4000 0002209 279.6821 80.3772 15.02559818106777
Epoch: Sep 16, 2025 • Age: 39 hours

当前状态

高度 563.6 km
速度 7.58 km/s
星下点 43.03°N, 145.42°W
发射日期 Oct 18, 2023
运行时间 1.9 years
类型 internet

技术详情

分类 Payload
质量 730.00 kg
干质量 700.00 kg
总质量 730.00 kg
长度 0.30 m
直径 4.10 m
跨度 29.00 m
形状 Box + pan
制造商 SPXS
平台类型 Starlink V2M
阶段状态 In Orbit
所有者/国家 SPXS/US

大型星座

Loading constellations...